This is the latest recevied weather packets stored in our database for station/object OE-11121. If no packets are shown the sender has not sent any weather packets the latest 10 day(s).
| Time | Temp. | Humidity | Pressure | Rain* | Wind** | Luminosity | Snow |
|---|---|---|---|---|---|---|---|
| 1787755307 | 27.22° C | 45% | 1013 hPa | 0 mm | - | 457 W/m² | - |
| 1787754933 | 27.22° C | 50% | 1013 hPa | 0 mm | - | 541 W/m² | - |
| 1787754333 | 27.22° C | 44% | 1013 hPa | 0 mm | - | 589 W/m² | - |
| 1787753506 | 27.22° C | 49% | 1013.2 hPa | 0 mm | - | 529 W/m² | - |
| 1787753133 | 26.67° C | 50% | 1013.3 hPa | 0 mm | - | 517 W/m² | - |
| 1787752533 | 26.67° C | 48% | 1013.5 hPa | 0 mm | - | 601 W/m² | - |
| 1787751706 | 26.67° C | 49% | 1013.5 hPa | 0 mm | - | 697 W/m² | - |
| 1787751333 | 26.67° C | 48% | 1013.4 hPa | 0 mm | - | 733 W/m² | - |
| 1787749906 | 26.67° C | 48% | 1013.7 hPa | 0 mm | - | 745 W/m² | - |
| 1787749533 | 26.11° C | 50% | 1013.9 hPa | 0 mm | - | 745 W/m² | - |
| 1787748933 | 26.11° C | 47% | 1013.9 hPa | 0 mm | - | 721 W/m² | - |
| 1787748106 | 26.11° C | 48% | 1013.8 hPa | 0 mm | - | 757 W/m² | - |
| 1787747733 | 26.11° C | 46% | 1013.9 hPa | 0 mm | - | 781 W/m² | - |
| 1787747132 | 25.56° C | 50% | 1014 hPa | 0 mm | - | 781 W/m² | - |
| 1787746306 | 25.56° C | 53% | 1014.4 hPa | 0 mm | - | 745 W/m² | - |
| 1787745933 | 25.56° C | 50% | 1014.5 hPa | 0 mm | - | 817 W/m² | - |
| 1787745332 | 25° C | 48% | 1014.6 hPa | 0 mm | - | 805 W/m² | - |
| 1787744505 | 25° C | 53% | 1014.7 hPa | 0 mm | - | 805 W/m² | - |
| 1787744133 | 24.44° C | 53% | 1014.9 hPa | 0 mm | - | 829 W/m² | - |
| 1787743533 | 24.44° C | 52% | 1015.1 hPa | 0 mm | - | 817 W/m² | - |
| 1787742705 | 24.44° C | 54% | 1015.2 hPa | 0 mm | - | 817 W/m² | - |
| 1787742331 | 23.89° C | 54% | 1015.4 hPa | 0 mm | - | 805 W/m² | - |
| 1787741731 | 23.89° C | 57% | 1015.5 hPa | 0 mm | - | 817 W/m² | - |
| 1787740905 | 23.33° C | 59% | 1015.7 hPa | 0 mm | - | 805 W/m² | - |
| 1787740532 | 23.33° C | 61% | 1015.9 hPa | 0 mm | - | 793 W/m² | - |
* Rain latest hour (hover to see other rain measurements)
** Current wind speed in m/s (hover to see current wind gust speed)